Location: Kott?ru
(16.6209°N, 80.6208°E)
Time: 05:18:18
(UTC+00:00)

Hubble Space Telescope - Pass Details

Date: 03 February 2023
Orbit: 527 x 530 km, 28.5° (Epoch: 27 March)

Event Time Altitude Azimuth Distance (km) Brightness Sun altitude
Exits shadow 00:10:20 20° 313° (NW) 1,239 2.1 -14.2°
Maximum altitude 00:12:52 50° 22° (NNE) 671 1.3 -13.6°
Drops below altitude 10° 00:16:50 10° 98° (E) 1,767 4.9 -12.7°
Sets 00:19:08 0° 104° (ESE) 2,656 6.5 -12.1°
